Location: Artiguedieu
(43.5000°N, 0.5454°E)
Time: 19:35:12
(UTC+00:00)

Transit 2A - Pass Details

Date: 30 July 2021
Orbit: 594 x 964 km, 66.7° (Epoch: 28 September)

Event Time Altitude Azimuth Distance (km) Brightness Sun altitude
Rises 13:20:03 0° 339° (NNW) 3,167 9.0 60.2°
Reaches altitude 10° 13:23:24 10° 2° (N) 2,322 8.4 59.9°
Maximum altitude 13:26:29 15° 38° (NE) 2,046 8.1 59.5°
Drops below altitude 10° 13:29:43 10° 73° (ENE) 2,464 8.5 59.1°
Sets 13:33:25 0° 95° (E) 3,475 9.2 58.6°
